DW9442 Weather Reports


Display with metric or nautical units.
time (UTC)temp
F
wind
direction
speed
MPH
gust
MPH
rain 1hr
in
rain 24hr
in
rain mn
in
humidity
%
barometer
mb
20260505101559 59 264 2.0 4.0 0.00 0.00 0.00 77 1014.7
20260505100041 58 300 1.0 5.0 0.00 0.00 0.00 78 1014.7
20260505094530 58 219 2.0 5.0 0.00 0.00 0.00 78 1014.8
20260505093048 59 283 0.0 3.0 0.00 0.00 0.00 79 1014.6
20260505091528 59 213 2.0 6.0 0.00 0.00 0.00 76 1014.8
20260505090013 60 205 3.0 7.0 0.00 0.00 0.00 73 1014.7
20260505084505 60 278 3.0 7.0 0.00 0.00 0.00 72 1014.5
20260505083047 60 254 2.0 4.0 0.00 0.00 0.00 72 1014.3
20260505081535 59 216 0.0 3.0 0.00 0.00 0.00 74 1014.3
20260505080023 59 288 0.0 3.0 0.00 0.00 0.00 74 1014.2
20260505074600 59 226 2.0 4.0 0.00 0.00 0.00 74 1014.2
20260505073045 59 310 0.0 5.0 0.00 0.00 0.00 76 1014.2
20260505071525 58 302 0.0 3.0 0.00 0.00 0.00 76 1014.2
20260505070015 57 303 1.0 3.0 0.00 0.00 0.00 75 1014.2
20260505064540 57 184 2.0 4.0 0.00 0.00 0.00 76 1014.2
20260505063012 58 241 1.0 3.0 0.00 0.00 0.00 76 1014.1
20260505061544 57 298 0.0 1.0 0.00 0.00 0.00 79 1014.0
20260505060010 55 105 0.0 1.0 0.00 0.00 0.00 82 1014.0
20260505054607 54 91 0.0 1.0 0.00 0.00 0.00 84 1013.9
20260505053031 54 30 0.0 1.0 0.00 0.00 0.00 81 1013.9
20260505051512 54 30 0.0 0.0 0.00 0.00 0.00 82 1014.0
20260505041552 54 30 0.0 1.0 0.00 0.00 0.00 81 1014.2
20260505040021 54 30 0.0 1.0 0.00 0.00 0.00 81 1014.2
20260505034552 54 30 0.0 2.0 0.00 0.00 0.00 81 1014.2
20260505033021 53 108 0.0 2.0 0.00 0.00 0.00 82 1014.2
20260505031606 53 13 1.0 1.0 0.00 0.00 0.00 84 1014.4
20260505030032 53 13 0.0 1.0 0.00 0.00 0.00 84 1014.5
20260505024502 53 26 1.0 3.0 0.00 0.00 0.00 84 1014.5
20260505023037 52 137 0.0 1.0 0.00 0.00 0.00 85 1014.5
20260505021505 53 104 0.0 1.0 0.00 0.00 0.00 84 1014.7
20260505020034 53 336 0.0 2.0 0.00 0.00 0.00 83 1014.8
20260505014609 54 319 0.0 0.0 0.00 0.00 0.00 81 1015.0
20260505013027 55 319 0.0 0.0 0.00 0.00 0.00 80 1015.1
20260505011607 54 319 0.0 0.0 0.00 0.00 0.00 81 1015.1
20260505010031 55 319 0.0 0.0 0.00 0.00 0.00 80 1015.2
20260505004602 55 319 0.0 0.0 0.00 0.00 0.00 79 1015.4
20260505003030 56 319 0.0 0.0 0.00 0.00 0.00 79 1015.5
20260505001601 56 22 0.0 0.0 0.00 0.00 0.00 78 1015.6
20260505000045 57 23 0.0 0.0 0.00 0.00 0.00 77 1015.8
20260504234502 58 23 0.0 0.0 0.00 0.00 0.00 74 1015.9
20260504233050 58 23 0.0 2.0 0.00 0.00 0.00 73 1016.0
20260504231505 58 6 0.0 2.0 0.00 0.00 0.00 75 1016.2
20260504230039 58 49 0.0 0.0 0.00 0.00 0.00 75 1016.2
20260504224614 58 58 1.0 2.0 0.00 0.00 0.00 74 1016.3
20260504223051 59 81 1.0 4.0 0.00 0.00 0.00 73 1016.4
20260504221601 58 39 0.0 2.0 0.00 0.00 0.00 73 1016.4
20260504220033 58 2 0.0 1.0 0.00 0.00 0.00 76 1016.6
20260504214504 58 4 1.0 3.0 0.00 0.00 0.00 74 1016.6
20260504213045 59 134 0.0 1.0 0.00 0.00 0.00 74 1016.6
20260504211502 59 354 0.0 1.0 0.00 0.00 0.00 72 1016.7
20260504210026 59 354 0.0 1.0 0.00 0.00 0.00 71 1016.7
20260504204558 59 354 1.0 2.0 0.00 0.00 0.00 72 1016.7
20260504203028 59 2 0.0 1.0 0.00 0.00 0.00 72 1016.7
20260504201606 59 2 0.0 2.0 0.00 0.00 0.00 73 1016.6
20260504200033 61 344 0.0 1.0 0.00 0.00 0.00 71 1016.6
20260504194604 61 344 0.0 1.0 0.00 0.00 0.00 70 1016.6
20260504193059 61 31 0.0 2.0 0.00 0.00 0.00 69 1016.6
20260504191524 63 272 1.0 3.0 0.00 0.00 0.00 67 1016.4
20260504190052 63 255 2.0 4.0 0.00 0.00 0.00 65 1016.2
20260504184523 64 228 4.0 7.0 0.00 0.00 0.00 65 1016.2
20260504183046 64 268 4.0 10.0 0.00 0.00 0.00 66 1016.0
20260504181516 64 281 0.0 4.0 0.00 0.00 0.00 63 1015.9
20260504180049 65 251 1.0 5.0 0.00 0.00 0.00 58 1015.8
20260504174518 66 238 2.0 6.0 0.00 0.00 0.00 53 1015.6
20260504173054 67 229 5.0 10.0 0.00 0.00 0.00 51 1015.5
20260504171524 68 198 4.0 9.0 0.00 0.00 0.00 50 1015.5
20260504150106 73 134 5.0 6.0 0.00 0.00 0.00 41 1015.7